Date String (YYYY-MM-DD hh:mm:ss) UTC,Instrument flags,Ambient pressure (hPa),Sample flow (lpm),Bypass flow (lpm),Sample temperature (°C),Ambient temperature (°C),ASC tube jacket temperature (°C),LED temperature (°C),Box temperature (°C),Sample RH (%),Span deviation,Mass concentration (μg/m³),Mass concentration (μg/m³),Mass concentration (μg/m³)
DateTimeUTC,F1_M11,P_M11,Q1_M11,Q2_M11,T1_M11,T2_M11,T3_M11,T4_M11,T5_M11,U1_M11,ZSPAN_M11,X0_M11,X2_M11,X1_M11
2022-02-05 17:00:00,,0825.8,4.99,0.00,22.0,21.2,00.0,31.1,23.6,07.9,0000.0,0004.69,0000.73,0000.47
2022-02-05 17:01:00,,0825.9,5.00,0.00,22.0,21.1,00.0,31.1,23.6,07.5,0000.0,0004.53,0000.67,0000.46
2022-02-05 17:02:00,,0826.0,5.00,0.00,22.0,21.0,00.0,31.1,23.5,07.6,0000.0,0004.63,0000.64,0000.45
2022-02-05 17:03:00,,0826.0,4.99,0.00,21.9,20.9,00.0,31.1,23.5,07.7,0000.0,0004.78,0000.61,0000.44
2022-02-05 17:04:00,,0826.1,5.01,0.00,21.9,21.0,00.0,31.1,23.5,07.4,0000.0,0005.34,0000.58,0000.43
2022-02-05 17:05:00,,0826.2,4.99,0.00,22.0,21.7,00.0,31.1,23.7,07.1,0000.0,0004.64,0000.55,0000.42
2022-02-05 17:06:00,,0826.3,5.00,0.00,22.1,22.6,00.0,31.1,24.0,07.3,0000.0,0003.45,0000.51,0000.42
2022-02-05 17:07:00,,0826.4,4.99,0.00,22.3,23.1,00.0,31.2,24.2,07.2,0000.0,0002.66,0000.51,0000.42
2022-02-05 17:08:00,,0826.4,5.00,0.00,22.3,22.8,00.0,31.2,24.2,07.4,0000.0,0001.71,0000.49,0000.41
2022-02-05 17:09:00,,0826.5,5.00,0.00,22.3,22.5,00.0,31.2,24.1,07.3,0000.0,0001.70,0000.49,0000.41
2022-02-05 17:10:00,,0826.4,5.00,0.00,22.3,22.3,00.0,31.2,24.1,07.5,0000.0,0001.72,0000.50,0000.40
2022-02-05 17:11:00,,0826.5,4.99,0.00,22.3,22.1,00.0,31.2,24.0,07.0,0000.0,0001.77,0000.51,0000.40
2022-02-05 17:12:00,,0826.5,4.99,0.00,22.2,21.9,00.0,31.2,23.9,07.0,0000.0,0001.83,0000.54,0000.41
2022-02-05 17:13:00,,0826.5,5.02,0.00,22.2,21.8,00.0,31.2,23.9,07.1,0000.0,0001.76,0000.57,0000.42
2022-02-05 17:14:00,,0826.5,4.99,0.00,22.2,21.6,00.0,31.2,23.8,07.4,0000.0,0001.48,0000.56,0000.41
2022-02-05 17:15:00,,0826.5,5.01,0.00,22.1,21.5,00.0,31.2,23.8,07.5,0000.0,0000.87,0000.56,0000.41
2022-02-05 17:16:00,,0826.5,4.99,0.00,22.1,21.4,00.0,31.2,23.7,07.3,0000.0,0000.90,0000.57,0000.40
2022-02-05 17:17:00,,0826.4,4.99,0.00,22.1,21.4,00.0,31.2,23.7,07.6,0000.0,0000.91,0000.57,0000.41
2022-02-05 17:18:00,,0826.5,5.01,0.00,22.0,21.3,00.0,31.1,23.7,07.5,0000.0,0001.00,0000.59,0000.40
2022-02-05 17:19:00,,0826.5,4.99,0.00,22.0,21.2,00.0,31.1,23.6,07.7,0000.0,0001.08,0000.59,0000.39
2022-02-05 17:20:00,,0826.5,5.02,0.00,22.0,21.2,00.0,31.1,23.6,07.8,0000.0,0001.15,0000.60,0000.39
2022-02-05 17:21:00,,0826.5,4.98,0.00,22.0,21.1,00.0,31.1,23.5,07.7,0000.0,0001.13,0000.59,0000.39
2022-02-05 17:22:00,,0826.4,5.01,0.00,21.9,21.1,00.0,31.1,23.5,07.7,0000.0,0001.08,0000.58,0000.38
2022-02-05 17:23:00,,0826.6,5.00,0.00,21.9,21.0,00.0,31.0,23.5,07.9,0000.0,0001.02,0000.56,0000.38
2022-02-05 17:24:00,,0826.5,5.00,0.00,21.9,21.0,00.0,31.0,23.5,08.2,0000.0,0001.00,0000.55,0000.37
2022-02-05 17:25:00,,0826.5,5.02,0.00,21.9,21.6,00.0,31.0,23.6,08.1,0000.0,0001.09,0000.59,0000.38
2022-02-05 17:26:00,,0826.4,4.99,0.00,22.1,22.6,00.0,31.1,24.0,07.5,0000.0,0001.08,0000.60,0000.38
2022-02-05 17:27:00,,0826.4,5.01,0.00,22.3,23.3,00.0,31.1,24.3,07.7,0000.0,0001.05,0000.59,0000.38
2022-02-05 17:28:00,,0826.5,4.98,0.00,22.3,23.0,00.0,31.2,24.3,07.5,0000.0,0001.04,0000.59,0000.38
2022-02-05 17:29:00,,0826.3,5.01,0.00,22.3,22.7,00.0,31.2,24.2,07.6,0000.0,0000.98,0000.57,0000.38
2022-02-05 17:30:00,,0826.4,4.99,0.00,22.3,22.4,00.0,31.2,24.1,07.7,0000.0,0000.91,0000.58,0000.38
2022-02-05 17:31:00,,0826.4,4.99,0.00,22.3,22.1,00.0,31.2,24.0,07.5,0000.0,0000.82,0000.56,0000.38
2022-02-05 17:32:00,,0826.4,5.01,0.00,22.3,21.9,00.0,31.2,24.0,07.9,0000.0,0000.80,0000.55,0000.38
2022-02-05 17:33:00,,0826.3,5.00,0.00,22.2,21.7,00.0,31.2,23.9,07.8,0000.0,0000.73,0000.51,0000.37
2022-02-05 17:34:00,,0826.4,4.99,0.00,22.2,21.5,00.0,31.2,23.8,07.9,0000.0,0000.74,0000.51,0000.37
2022-02-05 17:35:00,,0826.3,4.99,0.00,22.2,21.4,00.0,31.2,23.8,08.2,0000.0,0000.82,0000.51,0000.37
2022-02-05 17:36:00,,0826.3,4.99,0.00,22.1,21.2,00.0,31.2,23.7,08.0,0000.0,0000.87,0000.51,0000.37
2022-02-05 17:37:00,,0826.3,5.01,0.00,22.1,21.1,00.0,31.2,23.7,08.1,0000.0,0000.90,0000.52,0000.37
2022-02-05 17:38:00,,0826.3,4.98,0.00,22.0,21.0,00.0,31.2,23.6,08.0,0000.0,0000.90,0000.52,0000.37
2022-02-05 17:39:00,,0826.4,5.02,0.00,22.0,20.9,00.0,31.1,23.6,08.2,0000.0,0001.01,0000.53,0000.36
2022-02-05 17:40:00,,0826.3,4.98,0.00,22.0,20.9,00.0,31.1,23.5,08.0,0000.0,0001.05,0000.53,0000.36
2022-02-05 17:41:00,,0826.2,5.02,0.00,21.9,20.8,00.0,31.1,23.5,07.8,0000.0,0001.06,0000.53,0000.36
2022-02-05 17:42:00,,0826.1,4.99,0.00,22.0,21.4,00.0,31.1,23.6,07.9,0000.0,0001.11,0000.55,0000.37
2022-02-05 17:43:00,,0826.3,5.00,0.00,22.1,22.4,00.0,31.1,24.0,07.8,0000.0,0001.15,0000.57,0000.37
2022-02-05 17:44:00,,0826.4,4.99,0.00,22.3,23.2,00.0,31.2,24.3,07.7,0000.0,0001.21,0000.59,0000.38
2022-02-05 17:45:00,,0826.4,5.00,0.00,22.4,23.0,00.0,31.2,24.3,07.7,0000.0,0001.23,0000.61,0000.39
2022-02-05 17:46:00,,0826.4,5.00,0.00,22.3,22.7,00.0,31.2,24.2,07.9,0000.0,0001.12,0000.58,0000.39
2022-02-05 17:47:00,,0826.5,4.99,0.00,22.3,22.3,00.0,31.2,24.0,08.0,0000.0,0001.04,0000.57,0000.39
2022-02-05 17:48:00,,0826.5,5.01,0.00,22.2,22.1,00.0,31.2,23.9,08.0,0000.0,0000.97,0000.54,0000.39
2022-02-05 17:49:00,,0826.4,4.99,0.00,22.2,21.8,00.0,31.2,23.9,07.8,0000.0,0000.96,0000.54,0000.39
2022-02-05 17:50:00,,0826.3,5.01,0.00,22.2,21.7,00.0,31.2,23.8,07.7,0000.0,0000.86,0000.52,0000.39
2022-02-05 17:51:00,,0826.1,4.99,0.00,22.1,21.5,00.0,31.2,23.7,07.9,0000.0,0000.83,0000.51,0000.38
2022-02-05 17:52:00,,0826.2,4.99,0.00,22.1,21.3,00.0,31.2,23.7,07.9,0000.0,0000.86,0000.52,0000.38
2022-02-05 17:53:00,,0826.3,5.01,0.00,22.1,21.2,00.0,31.2,23.6,07.6,0000.0,0000.85,0000.51,0000.38
2022-02-05 17:54:00,,0826.2,5.00,0.00,22.0,21.1,00.0,31.1,23.6,07.8,0000.0,0000.83,0000.51,0000.38
2022-02-05 17:55:00,,0826.3,5.01,0.00,22.0,21.0,00.0,31.1,23.6,07.8,0000.0,0000.79,0000.49,0000.38
2022-02-05 17:56:00,,0826.3,4.99,0.00,21.9,21.0,00.0,31.1,23.5,07.4,0000.0,0000.75,0000.48,0000.37
2022-02-05 17:57:00,,0826.3,5.00,0.00,21.9,21.0,00.0,31.1,23.5,07.5,0000.0,0000.73,0000.47,0000.37
2022-02-05 17:58:00,,0826.3,5.01,0.00,21.9,21.0,00.0,31.0,23.4,07.7,0000.0,0000.71,0000.46,0000.37
2022-02-05 17:59:00,,0826.1,5.00,0.00,21.9,21.5,00.0,31.1,23.6,08.1,0000.0,0000.76,0000.48,0000.37
